Weather History for KAEG - April, 2014

Change the Weather History Date:

Thursday, April 24, 2014

  Actual Average Record
Temperature  
Mean Temperature 53 °F -  
Max Temperature 68 °F - - ()
Min Temperature 37 °F - - ()
Degree Days  
Heating Degree Days 12    
Growing Degree Days 3 (Base 50)    
Moisture  
Dew Point 8 °F    
Average Humidity 19    
Maximum Humidity 33    
Minimum Humidity 9    
Precipitation  
Precipitation 0.00 in - - ()
Sea Level Pressure  
Sea Level Pressure 30.06 in    
Wind  
Wind Speed 11 mph (NW)    
Max Wind Speed 21 mph    
Max Gust Speed 25 mph    
Visibility 10 miles    
Events      
T = Trace of Precipitation, MM = Missing Value Source: NWS Daily Summary

Daily Weather History Graph

Daily Weather History Graph

Search for Another Location

Airport or City:

Trip Planner

Search our weather history database for the weather conditions in past years. The results will help you decide how hot, cold, wet, or windy it might be!

Date:

Astronomy

Apr. 24, 2014 Rise Set
Actual Time 6:23 AM MDT 7:47 PM MDT
Civil Twilight 5:57 AM MDT 8:13 PM MDT
Nautical Twilight 5:25 AM MDT 8:45 PM MDT
Astronomical Twilight 4:52 AM MDT 9:19 PM MDT
Moon 3:25 AM MDT (4/24) 3:16 PM MDT (4/24)
Length of Visible Light 14h 16m
Length of Day
13h 23m
Waning Crescent, 24% of the Moon is Illuminated
Apr 24
Waning Crescent
Apr 29
New
May 6
First Quarter
May 14
Full
May 21
Last Quarter

Hourly Weather History & Observations

Time (MDT) Temp. Windchill Dew Point Humidity Pressure Visibility Wind Dir Wind Speed Gust Speed Precip Events Conditions
12:15 AM 48.0 °F - 11.8 °F 23% 29.98 in 10.0 mi NW 18.4 mph 24.2 mph N/A   Clear
12:35 AM 47.8 °F - 11.5 °F 23% 29.98 in 10.0 mi NW 20.7 mph 25.3 mph N/A   Clear
12:55 AM 47.7 °F - 10.4 °F 22% 29.98 in 10.0 mi WNW 18.4 mph 25.3 mph N/A   Clear
1:15 AM 46.4 °F 40.1 °F 10.4 °F 23% 29.98 in 10.0 mi WNW 15.0 mph - N/A   Clear
1:35 AM 46.6 °F - 10.2 °F 23% 30.00 in 10.0 mi WNW 11.5 mph - N/A   Clear
1:55 AM 45.0 °F 41.8 °F 10.2 °F 24% 30.01 in 10.0 mi WNW 5.8 mph - N/A   Clear
2:15 AM 45.5 °F 40.3 °F 10.4 °F 24% 30.02 in 10.0 mi WNW 10.4 mph - N/A   Clear
2:35 AM 43.3 °F 41.7 °F 10.4 °F 26% 30.02 in 10.0 mi West 3.5 mph - N/A   Clear
2:55 AM 41.4 °F 39.4 °F 10.6 °F 28% 30.03 in 10.0 mi North 3.5 mph - N/A   Clear
3:15 AM 43.7 °F 38.6 °F 11.3 °F 27% 30.04 in 10.0 mi North 9.2 mph - N/A   Clear
3:35 AM 44.1 °F 40.8 °F 10.8 °F 26% 30.06 in 10.0 mi NNE 5.8 mph 16.1 mph N/A   Clear
3:55 AM 42.6 °F 38.4 °F 10.6 °F 27% 30.06 in 10.0 mi North 6.9 mph - N/A   Clear
4:15 AM 39.2 °F 35.0 °F 10.2 °F 30% 30.08 in 10.0 mi NNE 5.8 mph - N/A   Clear
4:35 AM 41.7 °F 36.7 °F 10.0 °F 27% 30.08 in 10.0 mi NNW 8.1 mph - N/A   Clear
5:53 AM 39.2 °F 31.6 °F 8.6 °F 28% 30.10 in 10.0 mi NNW 12.7 mph - N/A   Clear
6:50 AM 37.4 °F 31.4 °F 10.4 °F 33% 30.13 in 10.0 mi North 8.1 mph - N/A   Clear
8:50 AM 50.0 °F - 10.4 °F 20% 30.17 in 10.0 mi WNW 11.5 mph - N/A   Clear
9:48 AM 55.4 °F - 10.4 °F 17% 30.18 in 10.0 mi WNW 10.4 mph - N/A   Mostly Cloudy
9:53 AM 51.8 °F - 10.4 °F 19% 30.17 in 10.0 mi NW 10.4 mph - N/A   Clear
11:48 AM 59.0 °F - 12.2 °F 16% 30.17 in 10.0 mi WSW 10.4 mph - N/A   Mostly Cloudy
12:48 PM 60.8 °F - 12.2 °F 15% 30.15 in 10.0 mi SSW 6.9 mph - N/A   Mostly Cloudy
1:48 PM 62.6 °F - 12.2 °F 14% 30.12 in 10.0 mi SSW 6.9 mph - N/A   Mostly Cloudy
2:48 PM 62.6 °F - 10.4 °F 13% 30.10 in 10.0 mi Calm Calm - N/A   Mostly Cloudy
3:48 PM 66.2 °F - 10.4 °F 11% 30.06 in 10.0 mi Variable 3.5 mph - N/A   Mostly Cloudy
4:48 PM 68.0 °F - 10.4 °F 11% 30.03 in 10.0 mi Variable 6.9 mph - N/A   Mostly Cloudy
5:48 PM 69.8 °F - 8.6 °F 9% 30.02 in 10.0 mi Variable 6.9 mph - N/A   Mostly Cloudy
6:48 PM 66.2 °F - 10.4 °F 11% 30.03 in 10.0 mi SSE 5.8 mph - N/A   Scattered Clouds
7:48 PM 60.8 °F - 3.2 °F 10% 30.05 in 10.0 mi Calm Calm - N/A   Scattered Clouds
8:48 PM 60.8 °F - 1.4 °F 9% 30.05 in 10.0 mi Calm Calm - N/A   Scattered Clouds
9:15 PM 52.3 °F - 3.6 °F 14% 30.06 in 10.0 mi North 4.6 mph - N/A   Clear
9:35 PM 49.3 °F - 3.7 °F 16% 30.06 in 10.0 mi NW 5.8 mph - N/A   Clear
9:48 PM 48.2 °F - 3.2 °F 16% 30.06 in 10.0 mi WNW 5.8 mph - N/A   Clear
9:55 PM 48.2 °F - 2.8 °F 16% 30.06 in 10.0 mi NW 6.9 mph - N/A   Clear
10:15 PM 45.5 °F 41.8 °F 3.2 °F 18% 30.06 in 10.0 mi NNW 6.9 mph - N/A   Clear
10:35 PM 46.6 °F - 3.2 °F 17% 30.06 in 10.0 mi NW 8.1 mph - N/A   Clear
10:55 PM 46.6 °F - 3.0 °F 17% 30.05 in 10.0 mi NNW 8.1 mph - N/A   Clear
11:15 PM 46.0 °F 41.9 °F 3.2 °F 17% 30.05 in 10.0 mi NNW 8.1 mph - N/A   Clear
11:35 PM 45.5 °F 41.3 °F 3.0 °F 17% 30.04 in 10.0 mi NNW 8.1 mph - N/A   Clear
11:55 PM 44.2 °F 39.7 °F 3.4 °F 19% 30.04 in 10.0 mi NNW 8.1 mph - N/A   Clear